Dewpoint
2 -1 1 3 -1 -2 4 4 3 1 -1 2 5 4 5 5 6 6 5 4 4 5 7 7 8 9 9 9 8 8 8 7 8 9 9 8 8 8 8 8 8 8 8 8
3 1 -1 2 1 -2 -1 3 4 5 -3 1 4 4 4 5 7 7 5 4 3 5 4 6 7 7 9 9 9 9 8 7 7 8 9 8 8 8 8 8 8 7 7 6
1 1 0 -1 0 -1 -1 1 3 5 3 4 4 3 4 5 6 6 6 4 2 3 4 3 3 5 5 6 8 9 9 9 7 7 8 8 8 8 8 8 8 8 7 7
3 1 -1 -1 -2 0 4 2 0 3 4 3 2 2 3 4 5 6 5 4 4 3 3 3 2 1 4 4 6 9 9 9 8 8 7 8 8 8 9 9 8 8 8 8
3 3 -1 -2 1 -1 4 4 3 2 3 2 1 4 5 5 4 4 4 4 3 3 2 1 2 2 2 4 6 7 9 9 9 9 9 9 9 9 8 8 8 8 8 8
2 2 1 -3 -2 -1 1 5 2 3 3 2 1 3 3 5 4 3 4 3 3 2 2 1 1 2 2 2 4 7 8 9 10 10 9 9 9 9 9 9 8 8 8 8
1 1 1 -1 -2 -3 2 4 2 0 1 0 1 1 5 4 3 3 3 3 2 1 1 1 0 1 2 3 3 5 9 9 10 10 9 9 9 9 9 9 9 8 8 8
-0 1 1 -3 -0 -1 1 -0 -0 -0 -0 -0 5 5 3 2 2 2 2 2 1 1 1 1 1 2 3 4 4 5 6 8 9 9 9 9 9 9 9 9 9 8 8 7
-1 -1 -4 -0 1 1 -1 -2 -0 -1 -0 1 3 3 2 1 1 1 2 1 1 1 -1 -1 0 0 1 3 3 4 4 6 7 8 9 9 9 9 9 9 8 7 7 3
-1 -2 1 1 1 1 -0 -1 0 0 -1 -2 -1 1 1 1 1 1 1 1 1 -0 -1 -2 -1 -1 -1 1 2 3 4 5 5 5 6 6 7 7 6 6 5 5 3 0
3 3 2 3 2 1 1 1 -1 -2 -3 -3 -3 -2 -1 -1 -1 -0 0 -1 -1 -2 -2 -3 -3 -2 -2 -1 -0 1 2 2 2 2 3 3 3 2 2 1 1 0 -2 -2
3 2 3 3 2 2 2 1 -2 -3 -3 -2 -2 -2 -2 -1 -1 -1 -1 -1 -2 -2 -3 -3 -3 -3 -3 -4 -3 -1 -0 -1 -1 -1 -1 -2 -2 -3 -3 -2 -3 -3 -4 -3
-0 1 1 1 1 0 -0 -1 -1 -1 -1 -1 -1 -1 -2 -2 -1 -1 -1 -2 -3 -3 -4 -4 -5 -5 -5 -4 -5 -4 -3 -3 -4 -4 -5 -5 -5 -5 -6 -5 -5 -5 -5 -6
1 0 0 -1 -1 -0 0 0 -0 -0 -1 -1 -1 -2 -2 -2 -2 -2 -2 -3 -4 -4 -5 -5 -6 -6 -6 -6 -5 -5 -6 -6 -6 -6 -6 -6 -6 -7 -8 -8 -8 -9 -9 -9
-2 -2 -1 -2 -3 -3 -3 -2 -2 -1 -1 -1 -2 -2 -3 -3 -3 -3 -4 -5 -5 -5 -5 -6 -6 -7 -7 -7 -7 -6 -6 -7 -7 -8 -8 -7 -7 -7 -7 -8 -9 -10 -10 -10
-2 -2 -3 -4 -4 -3 -3 -3 -2 -2 -2 -2 -3 -3 -3 -4 -4 -4 -4 -5 -5 -5 -6 -6 -6 -7 -8 -8 -8 -7 -7 -7 -7 -7 -8 -8 -8 -8 -8 -8 -8 -9 -9 -15
-4 -5 -6 -6 -6 -5 -5 -4 -4 -3 -3 -3 -4 -4 -4 -5 -5 -5 -6 -6 -6 -7 -7 -7 -7 -7 -7 -7 -7 -7 -7 -6 -6 -7 -7 -8 -8 -8 -8 -8 -8 -16 -23 -24
-6 -7 -7 -7 -8 -7 -6 -5 -5 -4 -4 -4 -5 -5 -5 -6 -6 -7 -7 -7 -8 -8 -8 -8 -8 -7 -7 -7 -6 -7 -7 -7 -7 -7 -7 -8 -8 -8 -10 -17 -24 -28 -28 -27
-9 -10 -9 -9 -9 -8 -8 -7 -6 -6 -6 -6 -6 -6 -6 -7 -8 -8 -9 -8 -9 -9 -9 -9 -8 -8 -7 -7 -7 -7 -7 -7 -7 -7 -7 -9 -16 -22 -24 -26 -28 -29 -29 -29
-11 -11 -11 -11 -11 -10 -9 -9 -8 -8 -7 -7 -8 -8 -8 -9 -9 -10 -10 -9 -10 -10 -10 -9 -9 -8 -8 -8 -8 -7 -7 -7 -8 -11 -21 -25 -25 -25 -27 -28 -28 -29 -29 -29
-12 -12 -12 -12 -12 -11 -11 -10 -10 -10 -9 -9 -10 -10 -10 -11 -11 -11 -10 -10 -11 -11 -10 -10 -10 -9 -9 -9 -9 -9 -13 -21 -27 -30 -29 -27 -28 -29 -28 -28 -28 -29 -29 -29
-13 -13 -13 -13 -13 -13 -12 -12 -12 -11 -11 -11 -11 -11 -11 -12 -12 -11 -11 -11 -12 -12 -11 -11 -11 -10 -10 -10 -10 -13 -23 -25 -26 -27 -27 -27 -27 -28 -27 -28 -28 -28 -28 -29
-14 -14 -14 -14 -14 -14 -13 -13 -13 -13 -13 -13 -13 -13 -13 -13 -13 -12 -12 -13 -13 -13 -12 -12 -12 -12 -12 -16 -24 -25 -25 -25 -26 -26 -27 -27 -28 -28 -28 -29 -29 -29 -29 -29
-14 -15 -15 -15 -14 -14 -14 -14 -14 -14 -14 -14 -14 -14 -14 -13 -14 -14 -14 -14 -14 -14 -13 -13 -13 -14 -17 -24 -25 -26 -26 -26 -27 -27 -28 -28 -29 -29 -30 -30 -30 -29 -29 -29
-13 -14 -15 -15 -15 -15 -15 -15 -15 -15 -15 -15 -15 -15 -14 -14 -14 -15 -15 -15 -15 -14 -14 -14 -14 -14 -16 -22 -24 -25 -26 -26 -26 -27 -28 -29 -30 -30 -30 -29 -28 -28 -28 -28
-13 -14 -15 -15 -15 -15 -15 -15 -15 -15 -15 -15 -15 -15 -15 -15 -15 -16 -16 -15 -15 -15 -16 -16 -15 -18 -23 -26 -27 -28 -28 -29 -29 -29 -29 -29 -29 -29 -29 -28 -28 -28 -28 -28
-14 -14 -14 -15 -15 -15 -15 -15 -15 -15 -16 -15 -16 -16 -16 -16 -16 -16 -16 -16 -16 -15 -15 -15 -16 -19 -25 -27 -29 -29 -29 -30 -30 -30 -30 -30 -30 -29 -29 -29 -29 -29 -29 -28
Wind_Speed
17 11 4 3 8 5 6 4 4 5 6 3 5 8 10 10 12 6 11 19 21 20 13 17 8 4 12 18 23 26 29 29 31 32 30 29 29 28 27 26 26 28 29 31
15 9 4 4 5 3 2 2 3 10 9 5 8 17 17 19 12 13 13 9 16 16 18 15 16 11 4 13 19 24 27 30 31 32 31 31 31 31 31 29 29 29 30 29
6 10 10 1 2 4 6 6 5 8 5 9 11 12 10 13 16 15 9 5 10 16 21 19 14 11 16 13 14 23 30 31 30 32 33 32 31 32 32 32 31 32 32 30
3 4 4 2 6 6 9 4 7 8 9 6 15 16 15 14 15 13 7 9 10 11 13 16 15 8 4 10 18 24 31 31 31 30 31 33 34 34 33 34 33 33 33 32
1 1 6 1 2 3 3 3 4 7 9 10 22 22 15 13 11 10 9 9 8 10 11 13 14 12 9 8 8 17 27 31 32 31 31 30 34 34 33 34 36 34 34 33
2 1 3 4 2 2 1 4 3 5 3 6 6 3 3 7 7 9 9 8 9 11 13 17 14 12 12 11 11 9 17 27 29 30 30 28 30 34 33 32 33 34 34 36
2 2 6 7 7 11 4 5 7 9 10 10 5 5 13 6 7 7 7 7 10 11 14 17 18 17 14 12 11 11 9 16 23 26 27 29 30 28 31 33 33 33 34 35
3 2 7 4 5 1 3 4 14 9 11 17 18 15 10 6 7 8 10 10 12 14 16 16 17 15 15 16 14 11 10 10 17 25 28 31 31 30 33 36 36 37 35 35
7 6 5 4 2 0 5 7 9 13 11 13 12 11 7 7 8 10 11 13 15 17 16 18 19 16 13 11 13 12 11 8 13 21 29 35 36 36 37 35 33 34 34 29
3 3 1 5 7 5 9 17 16 12 11 10 12 8 7 7 9 11 12 14 17 17 18 18 17 16 13 12 10 9 9 8 10 15 21 27 32 35 37 38 39 40 38 34
3 4 8 9 13 8 16 12 14 12 11 12 9 11 10 10 11 12 13 13 15 16 17 17 17 16 13 11 8 7 6 6 8 13 17 22 25 28 32 31 34 38 36 35
1 6 7 6 12 12 14 10 11 10 12 11 11 13 13 13 11 10 11 12 14 15 16 17 17 14 11 9 6 4 4 7 9 11 14 18 22 23 15 16 17 24 31 32
6 1 9 18 19 15 14 11 11 9 11 11 12 13 13 13 12 13 12 12 13 15 15 16 16 14 13 9 5 1 5 9 13 16 21 26 30 33 39 37 38 36 35 33
16 5 12 21 13 12 11 9 6 7 7 8 10 12 13 14 12 11 11 11 11 12 14 16 16 16 15 11 5 6 11 15 17 22 28 33 37 40 42 42 41 37 29 29
14 13 11 8 9 10 9 7 6 5 5 6 8 12 12 12 11 10 10 10 11 13 14 15 16 17 16 12 5 8 13 17 22 27 32 35 38 40 39 39 38 34 30 25
5 8 12 13 13 13 13 10 8 6 4 4 7 9 10 8 8 8 8 8 9 13 13 12 13 14 12 9 6 11 14 19 24 28 31 32 34 34 34 31 29 26 22 19
12 11 14 13 14 13 10 8 7 5 5 5 5 4 4 3 4 6 8 10 10 9 8 9 10 9 7 6 10 16 21 23 23 26 28 27 27 26 25 23 22 23 22 19
5 6 8 9 10 9 8 6 6 6 5 4 4 6 4 1 3 6 7 7 7 6 7 8 7 6 6 8 12 16 19 22 22 22 22 21 20 19 20 21 22 21 21 19
8 8 8 9 9 6 6 4 5 5 5 4 4 4 4 1 3 5 6 6 7 7 9 7 6 6 8 9 11 13 15 16 17 16 14 14 17 18 19 19 19 19 18 17
9 10 10 9 8 7 6 5 5 5 4 4 3 2 1 2 3 5 5 6 7 7 7 7 6 8 9 9 9 11 13 12 11 14 16 17 17 17 16 16 16 16 15 14
11 11 10 10 9 8 6 6 5 5 3 2 2 2 4 6 6 7 7 6 7 6 7 7 7 9 10 10 10 11 9 11 12 14 15 16 16 15 15 14 14 13 13 12
11 11 11 11 10 9 8 6 5 4 3 1 2 4 6 7 7 7 6 4 6 5 6 8 9 10 10 12 12 10 10 11 12 14 14 14 12 13 13 13 11 11 10 10
10 11 11 11 11 11 8 7 6 6 4 4 4 5 6 7 8 7 8 7 6 7 8 10 11 11 12 11 9 9 10 11 12 13 13 13 12 11 10 10 9 8 7 6
9 10 10 9 9 7 7 8 7 6 5 5 4 4 4 6 8 7 7 9 8 9 10 11 12 12 11 11 12 11 11 11 11 11 11 11 10 9 8 7 7 6 5 4
7 8 9 8 6 6 6 6 5 5 5 5 5 5 4 5 4 10 9 10 9 10 12 11 11 10 9 10 10 10 10 10 10 9 9 9 8 7 6 6 5 4 3 2
5 5 5 7 7 6 4 3 2 3 3 4 6 5 5 6 9 10 10 9 10 10 12 12 11 9 9 9 9 9 8 8 8 8 7 6 5 5 4 3 3 2 3 4
3 4 4 5 5 4 3 3 2 3 4 4 7 9 9 10 10 10 10 10 11 11 11 11 10 9 8 8 8 8 8 7 7 6 5 4 3 3 3 3 4 5 6 7
Wind_Direction
307 299 247 130 317 21 55 127 126 335 327 206 158 156 95 123 116 92 53 13 21 29 46 51 52 256 263 260 260 252 242 239 235 234 228 224 224 225 223 225 224 222 224 227
307 324 334 191 200 312 42 149 77 328 281 27 92 95 88 100 115 98 81 343 6 16 30 46 49 38 297 270 271 262 257 248 242 238 239 233 233 229 226 223 225 225 227 231
280 326 311 185 109 224 200 173 163 175 288 100 86 87 87 106 109 98 87 74 13 9 6 14 26 17 347 341 292 266 257 251 246 243 243 242 238 236 235 229 224 225 227 230
262 335 321 24 298 148 94 70 179 155 162 147 117 104 107 95 94 95 87 54 15 19 356 354 5 9 343 292 305 255 252 249 247 249 245 244 244 241 237 238 233 231 232 232
264 188 297 148 340 22 112 31 28 92 111 138 118 93 69 95 73 77 69 59 27 17 7 351 338 340 335 313 272 252 243 249 247 245 245 240 242 244 242 239 238 236 236 236
135 159 236 247 319 289 242 115 244 137 175 180 166 85 137 126 70 56 45 38 30 12 358 359 357 341 328 318 309 311 230 236 243 249 245 243 242 240 244 241 238 235 238 237
143 222 283 262 286 316 140 184 169 174 154 140 114 158 143 127 74 50 33 21 12 12 2 357 351 345 340 330 308 301 265 239 234 241 244 239 235 240 241 239 235 233 231 229
127 142 253 316 325 117 217 163 178 151 122 108 112 124 114 82 54 39 23 16 9 5 7 4 359 350 341 336 328 313 296 261 234 224 229 232 233 226 231 232 226 219 214 214
176 205 235 304 257 165 9 155 143 133 119 113 110 100 89 62 36 27 24 22 17 11 12 11 9 5 353 342 330 319 308 278 241 223 215 216 216 222 220 221 226 213 208 198
130 246 299 12 12 119 82 120 128 117 109 98 94 82 58 38 28 23 21 20 19 13 14 14 9 5 359 352 335 313 291 259 235 222 208 199 200 202 199 200 199 197 192 179
327 22 4 51 33 124 133 127 118 105 84 69 58 60 54 51 40 28 23 25 25 23 18 13 7 3 4 356 344 315 269 233 209 203 201 196 193 191 194 190 192 182 174 164
294 338 310 44 31 118 109 104 91 81 74 62 49 42 30 32 34 30 20 20 19 21 21 18 14 10 10 9 354 333 239 184 173 176 175 175 171 152 156 168 161 153 140 141
346 50 58 77 81 80 107 96 83 78 71 54 41 31 23 20 20 19 12 16 16 21 20 18 18 16 19 21 14 9 177 170 161 153 145 139 137 134 131 135 138 139 141 139
30 25 39 53 55 56 64 67 64 62 53 40 32 25 18 12 12 13 6 13 17 19 18 17 17 26 28 28 48 130 144 146 146 143 142 140 138 135 135 131 129 124 125 129
31 38 58 50 45 38 46 34 356 6 26 28 34 21 12 16 14 12 14 14 17 20 26 22 26 36 26 25 55 125 137 142 144 144 141 142 141 140 139 136 133 129 131 135
346 1 9 14 17 13 9 16 27 27 22 29 16 9 1 2 13 12 14 15 11 23 27 27 32 37 32 41 93 122 130 139 142 142 140 138 139 137 138 139 137 136 138 142
1 352 355 358 0 3 9 4 354 337 323 320 335 342 348 5 26 38 38 34 34 42 43 40 50 49 59 98 126 133 134 135 137 139 139 142 140 139 139 138 138 141 135 133
10 342 337 340 348 352 338 336 329 316 308 320 331 339 321 321 52 63 62 62 66 76 78 70 66 69 93 123 130 131 132 132 135 136 138 140 142 146 147 146 144 139 133 130
353 350 348 350 355 344 325 323 315 311 305 302 303 303 319 343 93 94 97 101 98 98 93 97 101 112 121 122 129 130 130 130 132 131 137 148 147 141 138 138 138 137 134 134
358 358 354 350 347 343 344 329 317 308 306 308 307 285 216 144 130 128 130 121 109 107 117 125 130 134 130 125 131 131 130 131 142 149 146 145 143 139 138 137 135 134 136 142
357 360 1 359 359 356 347 340 335 327 329 324 307 199 168 158 152 147 146 135 122 131 141 144 149 145 139 135 133 126 132 143 141 141 143 145 143 141 142 143 142 140 138 138
7 9 13 16 15 15 19 19 17 14 17 35 137 155 157 149 151 153 146 137 136 139 146 146 145 143 144 142 131 131 140 139 138 139 142 142 144 142 141 140 140 140 141 144
20 16 12 14 21 27 27 39 45 46 56 87 122 143 156 154 154 156 143 132 137 139 143 135 125 122 121 118 130 137 137 138 137 138 139 140 141 141 142 142 145 146 146 148
23 16 15 17 14 19 36 52 52 65 79 103 121 132 149 158 150 148 144 138 140 141 135 125 123 118 121 130 132 134 136 138 140 141 141 141 143 146 148 150 153 159 161 166
11 16 27 32 24 35 43 48 54 76 90 110 119 124 135 149 172 144 143 139 138 140 131 122 118 116 121 125 126 131 137 138 138 140 144 148 150 152 153 156 163 172 178 191
346 9 23 37 33 33 38 42 56 94 103 124 126 130 140 140 141 139 140 135 133 128 121 117 114 120 132 132 130 130 134 137 138 141 143 145 149 155 166 179 195 222 256 268
16 23 13 11 23 35 49 72 80 97 109 125 126 122 133 137 139 141 139 136 133 129 126 121 121 128 134 134 134 134 135 136 139 146 151 156 169 190 212 231 247 259 266 269
Height
1414 1402 1398 1396 1395 1391 1390 1397 1401 1398 1392 1383 1387 1390 1391 1391 1397 1400 1396 1398 1397 1395 1392 1390 1389 1389 1393 1396 1398 1401 1404 1407 1411 1415 1417 1417 1419 1422 1426 1431 1436 1440 1445 1450
1419 1402 1397 1398 1400 1392 1392 1398 1400 1400 1397 1384 1393 1392 1393 1397 1402 1398 1399 1402 1401 1399 1395 1391 1390 1390 1392 1393 1394 1397 1400 1403 1407 1410 1414 1418 1420 1421 1423 1426 1430 1435 1439 1444
1426 1407 1403 1399 1394 1393 1394 1391 1395 1404 1401 1393 1396 1396 1399 1401 1401 1399 1402 1399 1399 1395 1392 1392 1390 1384 1387 1388 1390 1392 1394 1396 1400 1405 1407 1412 1417 1421 1422 1423 1426 1429 1434 1439
1418 1410 1411 1393 1387 1389 1389 1388 1390 1393 1394 1398 1395 1400 1402 1402 1401 1400 1403 1397 1398 1396 1397 1395 1390 1390 1389 1389 1390 1390 1391 1392 1395 1397 1400 1405 1409 1414 1419 1422 1424 1426 1430 1434
1418 1415 1407 1393 1392 1391 1387 1396 1393 1393 1394 1401 1400 1401 1405 1405 1404 1402 1401 1400 1401 1399 1397 1394 1392 1390 1388 1389 1388 1386 1384 1386 1388 1391 1394 1400 1404 1408 1412 1416 1420 1423 1427 1430
1427 1424 1430 1397 1390 1388 1388 1401 1396 1398 1398 1397 1398 1404 1409 1409 1407 1403 1402 1402 1400 1397 1394 1389 1387 1385 1384 1382 1380 1378 1379 1380 1383 1385 1389 1393 1400 1403 1405 1410 1415 1418 1421 1424
1429 1433 1415 1396 1389 1387 1397 1400 1394 1396 1398 1399 1401 1404 1407 1409 1408 1406 1403 1401 1399 1397 1392 1386 1383 1380 1378 1377 1376 1375 1374 1376 1378 1379 1382 1386 1391 1397 1401 1405 1409 1412 1414 1416
1431 1433 1424 1395 1390 1391 1395 1392 1393 1396 1398 1398 1401 1404 1406 1407 1406 1404 1402 1400 1397 1394 1390 1387 1384 1379 1376 1374 1373 1371 1372 1372 1373 1375 1376 1380 1385 1388 1394 1399 1401 1403 1406 1408
1409 1409 1396 1395 1394 1392 1391 1391 1394 1395 1398 1399 1400 1403 1404 1403 1402 1401 1400 1399 1396 1394 1390 1385 1382 1380 1379 1376 1373 1372 1372 1370 1370 1371 1373 1375 1379 1384 1388 1390 1394 1397 1396 1403
1400 1395 1395 1394 1392 1392 1392 1392 1396 1398 1399 1399 1399 1401 1400 1399 1399 1399 1398 1396 1394 1393 1390 1387 1384 1381 1378 1374 1373 1372 1371 1370 1369 1369 1370 1370 1372 1377 1380 1383 1385 1385 1389 1396
1396 1396 1395 1396 1396 1394 1393 1398 1398 1399 1399 1399 1400 1400 1399 1399 1398 1398 1396 1394 1393 1392 1389 1386 1383 1381 1378 1376 1375 1372 1370 1369 1369 1369 1369 1370 1372 1375 1379 1382 1385 1386 1391 1396
1403 1404 1403 1401 1399 1398 1397 1401 1400 1399 1399 1400 1401 1399 1398 1398 1398 1398 1396 1394 1393 1391 1389 1387 1385 1382 1380 1377 1375 1373 1372 1371 1372 1372 1373 1374 1376 1378 1387 1389 1394 1398 1403 1406
1408 1404 1405 1402 1400 1402 1402 1403 1401 1402 1402 1401 1400 1400 1400 1400 1399 1396 1395 1394 1392 1390 1389 1387 1385 1382 1379 1378 1377 1375 1374 1374 1375 1376 1378 1379 1381 1384 1386 1393 1398 1404 1407 1413
1406 1404 1403 1402 1404 1404 1404 1404 1405 1405 1404 1403 1402 1402 1402 1402 1400 1398 1396 1394 1392 1390 1388 1386 1385 1382 1380 1379 1378 1378 1377 1378 1380 1382 1383 1385 1387 1390 1394 1398 1401 1406 1415 1419
1414 1412 1411 1410 1410 1409 1408 1406 1405 1405 1404 1404 1404 1404 1404 1403 1401 1398 1396 1394 1392 1389 1387 1386 1384 1382 1382 1382 1383 1382 1383 1384 1385 1389 1391 1393 1395 1397 1401 1405 1408 1412 1417 1423
1420 1417 1414 1412 1411 1409 1407 1406 1406 1406 1406 1406 1405 1405 1404 1402 1401 1399 1397 1395 1392 1389 1390 1390 1388 1388 1388 1388 1389 1390 1389 1392 1394 1396 1400 1403 1405 1406 1408 1412 1417 1421 1423 1428
1419 1417 1417 1415 1413 1411 1411 1410 1409 1408 1407 1407 1406 1406 1405 1404 1402 1399 1396 1394 1394 1395 1396 1395 1394 1394 1395 1396 1396 1397 1396 1396 1400 1404 1406 1411 1415 1416 1418 1420 1422 1426 1429 1433
1423 1421 1419 1417 1415 1413 1411 1409 1409 1408 1407 1407 1407 1406 1405 1404 1401 1398 1397 1397 1398 1399 1400 1400 1401 1401 1402 1403 1404 1405 1405 1406 1410 1412 1415 1419 1421 1424 1424 1426 1428 1429 1431 1436
1422 1421 1418 1415 1413 1412 1412 1410 1409 1408 1407 1406 1405 1405 1404 1402 1400 1399 1400 1402 1403 1404 1405 1406 1406 1407 1408 1410 1411 1412 1413 1414 1417 1419 1422 1424 1426 1429 1430 1432 1433 1434 1436 1439
1421 1418 1416 1414 1412 1411 1409 1408 1407 1406 1405 1404 1404 1403 1403 1402 1403 1403 1405 1406 1406 1407 1408 1410 1410 1412 1413 1414 1416 1417 1418 1420 1421 1423 1425 1427 1429 1431 1435 1437 1438 1439 1441 1444
1420 1418 1416 1414 1411 1410 1408 1407 1406 1405 1404 1403 1404 1404 1404 1405 1406 1407 1408 1409 1410 1411 1412 1413 1414 1415 1417 1418 1419 1420 1422 1423 1424 1426 1429 1431 1433 1434 1437 1441 1443 1444 1445 1447
1420 1418 1416 1414 1411 1409 1408 1407 1406 1405 1405 1405 1405 1406 1407 1408 1409 1410 1411 1412 1413 1415 1416 1416 1417 1418 1420 1421 1422 1424 1426 1427 1428 1430 1433 1435 1438 1439 1441 1442 1444 1446 1447 1449
1421 1419 1417 1415 1413 1411 1410 1409 1408 1408 1407 1408 1408 1409 1410 1411 1412 1413 1414 1416 1417 1418 1419 1419 1420 1421 1422 1424 1426 1428 1430 1432 1433 1435 1436 1438 1440 1442 1444 1445 1447 1448 1449 1450
1422 1421 1418 1416 1415 1414 1412 1412 1411 1411 1411 1411 1412 1413 1414 1415 1416 1417 1418 1419 1420 1421 1422 1423 1423 1424 1425 1427 1429 1431 1433 1435 1436 1438 1439 1441 1442 1444 1446 1447 1448 1449 1450 1450
1424 1422 1420 1418 1418 1417 1416 1415 1415 1415 1415 1415 1416 1416 1417 1418 1419 1420 1422 1423 1424 1424 1424 1426 1427 1428 1429 1431 1432 1434 1436 1437 1439 1441 1442 1443 1444 1446 1447 1448 1449 1449 1450 1450
1424 1423 1422 1421 1421 1420 1419 1419 1419 1419 1418 1419 1419 1419 1420 1421 1422 1424 1425 1426 1427 1428 1428 1429 1430 1432 1433 1434 1435 1437 1438 1440 1441 1442 1443 1444 1445 1446 1447 1448 1448 1449 1449 1449
1426 1425 1424 1424 1423 1423 1422 1422 1422 1421 1421 1422 1422 1422 1424 1425 1426 1427 1428 1429 1430 1431 1431 1432 1433 1435 1437 1437 1438 1439 1440 1441 1442 1443 1444 1445 1446 1447 1447 1448 1448 1448 1448 1449